User: anonymous   Login
Location: Unspecified
(0.0000°N, 0.0000°E)
Time: 21:19:37
(UTC+00:00)
Language:

CUBEBUG 1 - Orbit

View from above orbital plane
View from above orbital plane
View from above satellite
View from above satellite

Ground track
Ground track

The orbit data is extracted from the following two-line orbital elements,

1 39153U 13018D   17141.79554104 +.00000279 +00000-0 +43654-4 0  9997
2 39153 097.9847 234.2334 0018241 131.2032 229.0756 14.80165967219680
Epoch (UTC): 21 May 2017 19:05:34
Eccentricity: 0.0018241
inclination: 97.9847°
perigee height: 616 km
apogee height: 641 km
right ascension of ascending node: 234.2334°
argument of perigee: 131.2032°
revolutions per day: 14.80165967
mean anomaly at epoch: 229.0756°
orbit number at epoch: 21968

The dashed part of the orbit path shows where the satellite is in the earth's shadow,  

DLR